Wind_Speed
45 45 43 41 39 36 35 34 34 35 34 34 37 39 41 43 47 47 48 48 48 45 44 42 40 41 44 46 48 49 48 47 48 49 49 49 49 48 49 50 49 48 49 49 48 47 47
47 47 48 45 41 38 38 37 38 38 38 39 39 41 41 44 46 48 45 43 40 41 40 38 36 39 40 44 43 46 46 46 44 45 46 48 49 50 51 49 50 51 51 50 48 47 45
51 48 46 43 41 39 41 39 41 40 40 38 39 41 42 45 42 41 38 38 38 42 36 33 34 38 37 39 39 44 44 38 40 42 42 44 47 50 53 53 52 51 52 50 50 50 45
50 50 48 46 44 42 45 43 43 44 42 40 40 42 43 40 37 37 34 36 37 38 36 33 33 35 34 33 31 37 41 34 34 38 40 43 43 47 50 53 52 53 53 52 53 52 50
53 53 51 49 49 46 47 46 43 42 43 40 42 42 41 36 32 29 31 33 35 36 34 35 33 35 38 38 36 35 34 35 43 40 41 40 45 48 47 50 52 53 55 55 54 54 49
56 53 52 50 49 48 45 45 43 41 43 43 42 39 36 32 28 29 31 33 35 36 36 36 35 38 39 39 38 38 37 38 38 39 43 44 46 47 48 51 53 53 54 52 51 53 55
57 54 49 44 44 45 46 44 42 44 43 41 39 36 33 30 30 30 31 33 35 36 39 40 41 41 42 40 42 44 44 44 44 42 44 44 49 46 47 50 46 52 52 53 52 56 56
54 50 48 46 46 45 45 42 43 43 41 39 37 34 32 31 31 32 33 35 36 38 40 41 40 39 41 43 45 48 48 49 47 48 48 47 47 39 51 50 50 51 51 48 53 54 57
50 49 48 47 46 43 40 42 44 42 38 36 35 33 33 33 33 33 35 36 39 41 41 41 42 45 48 49 51 54 55 56 55 54 54 54 42 48 48 52 53 52 51 52 52 52 54
52 52 50 45 42 42 42 44 43 40 37 35 36 35 36 35 35 35 36 38 40 42 43 44 45 48 52 55 59 60 61 62 62 61 59 56 54 55 54 51 50 54 53 56 54 50 49
50 47 45 44 43 43 45 44 41 38 38 37 37 36 37 37 36 35 37 39 39 41 44 44 46 48 53 58 62 66 66 65 62 62 61 55 57 62 59 50 53 49 52 54 53 52 49
49 47 45 43 43 46 46 43 40 38 38 38 37 38 39 37 34 36 38 38 40 41 45 47 48 51 55 58 60 64 64 60 61 59 55 58 56 61 59 58 58 53 53 50 51 52 55
49 45 45 44 45 45 44 40 39 39 38 39 39 41 40 36 36 37 37 38 42 41 43 47 51 53 57 60 61 57 44 18 24 22 22 35 50 55 60 60 57 57 56 54 52 55 54
46 46 43 45 45 44 43 40 40 40 41 41 40 42 39 36 35 36 37 38 40 42 42 47 51 53 55 56 49 33 7 8 15 24 16 25 23 38 54 61 56 58 56 55 55 52 51
47 44 44 45 45 45 44 42 42 43 43 42 42 41 38 36 36 36 37 38 40 41 43 47 49 51 48 43 38 13 17 25 17 15 16 15 13 12 27 48 52 51 52 50 37 27 31
49 47 46 46 46 47 45 43 45 45 43 42 42 41 37 35 35 35 36 38 40 41 44 46 49 46 42 34 28 19 21 23 17 21 10 10 16 6 11 26 38 43 44 41 38 41 48
50 48 48 47 48 47 46 46 47 44 44 44 40 40 36 35 34 34 36 38 39 41 42 43 44 37 32 30 26 19 13 19 23 20 9 11 17 11 12 14 15 35 43 37 35 41 33
49 49 49 49 48 47 48 48 45 44 44 43 41 40 37 35 33 33 35 36 37 39 40 41 36 29 26 27 22 16 16 26 28 15 3 8 2 19 15 15 18 18 23 27 35 40 44
46 48 47 46 46 45 47 44 44 45 45 41 41 41 36 33 32 32 34 34 36 37 38 38 31 26 22 23 23 12 19 20 22 14 13 10 3 9 9 18 19 22 28 27 29 28 33
46 43 43 44 43 43 44 43 42 41 38 40 41 39 33 31 30 31 33 33 35 36 35 32 26 23 20 18 20 15 20 18 23 14 9 9 7 6 12 11 23 19 13 21 35 32 33
39 39 38 37 37 39 39 39 39 39 38 41 39 35 30 27 29 30 31 33 34 34 31 28 24 22 21 17 14 16 15 15 22 23 12 12 8 7 17 20 20 21 12 14 19 26 30
39 39 38 38 39 39 40 40 38 39 41 40 37 28 25 27 29 30 30 31 33 31 30 26 24 21 22 19 13 8 10 21 15 18 16 14 9 11 5 26 22 21 20 11 7 17 21
42 40 40 39 38 39 39 37 37 36 33 30 25 23 25 27 28 28 29 31 32 29 28 26 24 19 20 20 14 11 7 6 13 10 9 8 12 12 14 10 17 22 21 15 10 14 14
46 45 44 41 40 41 42 38 35 29 23 22 22 25 27 27 27 28 29 31 32 30 26 26 24 18 17 18 15 12 8 6 6 5 9 5 6 10 12 11 13 17 20 18 16 14 16
47 45 44 41 37 35 34 31 28 24 23 25 26 26 25 25 26 28 29 30 32 30 26 23 24 19 16 15 12 12 12 7 4 6 5 2 2 4 8 9 7 16 18 16 18 19 19
52 49 47 43 37 37 34 32 30 28 26 26 25 25 24 25 26 29 29 31 30 29 23 22 20 17 15 15 10 7 8 10 5 8 8 8 4 4 4 4 2 9 21 16 14 13 12
59 55 53 49 45 42 39 37 34 31 29 27 26 25 24 26 27 28 29 29 30 21 21 20 17 14 11 13 12 6 4 6 8 7 10 11 6 4 3 4 7 4 28 24 19 14 10
62 60 58 52 49 45 42 39 36 34 30 27 27 25 25 27 28 27 28 28 18 18 16 14 16 16 14 11 14 11 7 5 6 8 11 8 5 8 9 7 9 7 9 20 21 18 10
58 56 58 56 51 48 44 39 35 32 29 27 27 25 25 27 27 25 26 17 13 13 13 16 15 16 17 14 15 14 12 9 8 11 11 11 6 7 10 13 11 11 12 13 24 15 10
Wind_Direction
279 280 284 284 282 279 280 285 291 294 296 297 301 302 304 304 301 299 299 298 301 301 301 300 289 283 277 281 277 272 269 265 259 256 254 251 253 254 250 248 248 249 249 247 246 244 246
280 281 285 286 283 280 283 287 290 292 294 297 300 300 300 297 298 298 299 302 304 301 296 291 284 283 283 281 274 272 269 264 257 253 250 248 247 248 251 249 248 248 246 248 247 248 247
280 285 285 286 284 281 286 290 291 291 290 295 297 296 294 293 294 296 298 300 300 298 289 289 288 286 291 281 272 272 268 262 262 257 251 249 244 243 246 248 247 246 248 246 247 247 247
281 284 285 284 285 283 287 288 290 290 290 292 291 290 291 293 292 293 294 296 296 294 292 296 295 292 288 286 286 278 273 270 275 266 264 253 253 243 242 244 244 244 244 245 248 246 245
279 282 281 282 284 283 285 284 285 287 287 288 285 285 292 288 289 292 294 293 293 293 291 288 288 288 286 287 289 283 279 280 278 268 259 263 262 254 241 242 242 243 244 244 244 250 250
277 278 276 278 278 277 278 281 283 282 281 282 281 287 285 283 288 290 291 293 293 292 289 287 286 285 284 288 287 286 284 282 279 278 269 264 262 260 258 246 239 246 245 244 246 249 247
275 274 275 273 272 275 275 277 274 274 277 281 280 282 280 282 283 286 289 293 293 292 291 291 290 289 291 291 290 288 285 285 285 280 272 266 255 260 258 260 250 252 249 244 244 247 245
274 272 271 269 271 272 274 272 273 274 277 278 276 277 278 280 285 287 288 289 289 291 288 288 290 290 286 286 286 289 287 283 280 277 274 268 265 263 256 255 252 249 250 247 247 247 246
267 267 265 268 273 273 271 272 274 274 276 271 273 275 276 278 285 286 288 287 289 289 289 292 293 295 297 295 292 290 291 288 284 278 272 267 267 258 251 249 250 249 249 249 249 250 248
263 265 268 271 272 268 272 273 272 273 271 271 273 273 274 274 281 284 284 287 291 294 294 296 299 299 300 300 300 298 296 292 286 282 274 266 260 255 251 248 250 247 246 248 250 252 248
257 260 265 267 267 271 271 270 268 270 269 268 270 270 273 274 280 281 286 289 294 299 302 302 304 304 305 305 303 301 299 294 288 280 274 266 255 252 246 247 247 245 247 246 249 252 249
255 258 261 262 267 267 268 267 267 267 267 267 268 268 273 275 278 281 287 292 299 302 307 308 309 308 307 306 307 306 304 299 291 283 272 262 248 245 244 238 240 239 241 242 245 245 245
252 256 259 259 260 263 263 262 264 263 264 266 266 267 272 276 281 284 290 297 302 303 308 310 310 310 312 313 315 311 307 309 315 291 288 259 245 241 237 233 232 235 237 239 238 241 241
253 254 254 258 259 259 259 259 260 259 262 263 263 268 272 278 283 288 293 299 302 306 309 311 312 315 317 319 320 301 292 290 314 297 296 298 252 242 231 231 226 229 231 235 237 240 242
253 253 256 256 256 256 257 256 254 256 261 262 264 269 272 279 285 289 294 301 303 308 312 312 314 318 320 322 321 250 261 300 320 348 297 290 275 251 239 230 226 227 232 229 230 225 231
252 253 253 254 255 256 255 252 252 254 259 259 265 268 273 279 284 290 298 302 306 312 314 314 317 322 320 324 311 274 294 306 320 1 248 311 269 259 233 234 227 226 226 222 216 226 235
249 249 250 251 252 251 251 249 251 256 257 260 267 269 273 279 286 294 299 302 308 312 313 317 320 322 321 325 315 271 302 302 300 16 42 277 248 210 215 233 240 232 227 221 224 230 225
249 250 250 249 248 248 248 250 253 257 257 263 267 268 273 280 288 294 298 304 310 312 313 318 319 316 320 323 321 286 289 305 296 9 78 62 276 237 232 233 227 220 218 229 227 226 222
244 247 247 248 249 249 250 253 254 257 263 268 268 269 273 280 288 292 298 305 308 310 314 320 316 313 314 319 320 293 284 293 305 352 39 72 48 196 254 237 222 214 204 211 215 212 226
246 246 247 247 250 253 256 258 259 263 268 268 269 270 272 280 286 292 299 304 304 308 312 317 311 306 301 311 316 295 286 300 296 315 41 72 110 217 242 189 235 245 247 209 208 214 220
243 246 247 248 251 256 256 258 262 263 266 270 267 267 272 281 286 293 298 299 303 308 311 315 308 300 293 298 308 304 298 302 301 310 352 40 64 183 206 206 230 228 240 224 214 211 210
244 245 246 247 249 252 251 255 257 262 263 263 265 271 279 282 286 290 292 298 303 308 309 306 300 300 292 296 304 306 308 291 286 302 342 2 30 61 160 213 230 223 232 248 236 193 196
242 243 244 245 247 250 252 254 255 255 257 258 265 275 277 282 284 287 292 296 302 307 305 297 292 296 286 283 293 303 315 282 281 288 335 0 16 33 27 155 205 221 221 220 214 223 209
238 239 241 242 242 242 245 243 248 253 261 266 270 269 272 276 279 286 291 296 303 307 303 288 284 287 270 268 282 285 278 305 272 264 298 329 13 37 37 89 190 201 218 214 204 217 222
253 253 251 252 256 258 259 264 269 269 261 259 261 265 271 277 281 285 289 297 304 305 301 280 282 284 270 253 267 279 294 298 242 203 230 271 8 43 46 32 132 165 211 212 214 226 234
247 248 250 251 249 251 253 252 253 253 254 257 261 266 270 273 279 284 291 300 303 302 289 281 279 279 272 242 262 285 267 289 226 181 181 176 193 274 310 33 167 182 162 183 211 215 179
243 244 246 248 248 248 249 250 250 250 252 254 257 262 266 271 275 282 294 299 298 290 285 281 271 268 270 242 234 237 245 253 207 203 180 186 190 225 254 302 290 265 161 167 170 200 197
243 244 243 244 246 247 246 246 247 247 248 249 253 257 263 268 274 282 294 295 293 287 285 273 268 266 265 266 222 223 226 213 209 196 194 185 205 224 222 236 259 250 200 175 175 170 170
241 242 243 243 243 244 245 244 243 243 243 243 247 252 258 265 272 285 288 284 285 277 276 276 270 280 263 249 214 210 202 202 189 187 203 195 232 249 212 220 223 245 203 193 166 153 198
Height
5754 5756 5756 5756 5755 5754 5753 5753 5752 5751 5748 5747 5746 5745 5743 5741 5739 5737 5736 5734 5732 5731 5729 5728 5727 5726 5724 5721 5720 5718 5719 5721 5723 5724 5726 5727 5729 5732 5737 5739 5740 5743 5746 5746 5748 5750 5753
5743 5745 5746 5746 5746 5744 5743 5743 5742 5741 5739 5738 5737 5736 5734 5731 5729 5728 5726 5724 5723 5723 5720 5718 5717 5716 5713 5711 5709 5709 5708 5707 5709 5711 5712 5714 5715 5717 5723 5726 5729 5731 5733 5735 5738 5740 5742
5733 5734 5733 5734 5735 5735 5735 5733 5732 5731 5729 5727 5727 5726 5724 5721 5718 5718 5717 5715 5714 5713 5712 5709 5708 5706 5702 5701 5700 5700 5698 5697 5697 5699 5700 5699 5701 5704 5708 5713 5716 5719 5722 5724 5727 5729 5733
5721 5722 5722 5722 5723 5723 5723 5723 5722 5721 5719 5716 5716 5715 5713 5711 5708 5708 5707 5707 5706 5705 5703 5700 5698 5697 5693 5692 5691 5692 5691 5690 5689 5688 5690 5688 5690 5692 5696 5699 5702 5706 5709 5712 5715 5716 5720
5708 5709 5710 5711 5712 5711 5712 5712 5711 5709 5708 5705 5706 5705 5704 5701 5699 5698 5699 5699 5698 5697 5695 5693 5691 5689 5686 5685 5685 5684 5683 5682 5679 5679 5678 5679 5680 5681 5683 5685 5688 5693 5697 5699 5702 5704 5710
5694 5696 5697 5699 5699 5699 5700 5701 5700 5699 5698 5695 5695 5694 5693 5692 5690 5691 5690 5691 5690 5689 5686 5684 5684 5683 5680 5679 5676 5674 5674 5673 5671 5670 5669 5668 5667 5670 5674 5673 5678 5679 5684 5689 5693 5694 5693
5681 5683 5684 5686 5687 5689 5689 5689 5688 5688 5686 5684 5684 5684 5683 5683 5684 5685 5684 5682 5682 5682 5675 5675 5674 5673 5671 5669 5666 5663 5663 5662 5659 5659 5656 5654 5657 5659 5662 5663 5668 5666 5670 5675 5680 5677 5682
5668 5669 5671 5673 5675 5676 5677 5677 5676 5676 5676 5674 5673 5674 5673 5674 5676 5677 5675 5674 5673 5671 5669 5667 5665 5665 5661 5659 5656 5651 5650 5649 5647 5643 5642 5643 5647 5656 5649 5651 5653 5655 5659 5666 5663 5665 5668
5656 5658 5660 5662 5664 5664 5665 5665 5665 5665 5665 5665 5665 5664 5665 5666 5667 5667 5667 5666 5664 5662 5659 5657 5654 5651 5647 5646 5642 5638 5635 5631 5630 5629 5625 5625 5643 5628 5635 5636 5640 5645 5650 5653 5654 5651 5657
5644 5646 5648 5651 5652 5653 5654 5655 5654 5654 5655 5656 5657 5656 5657 5658 5659 5657 5656 5657 5655 5652 5649 5647 5643 5640 5634 5629 5624 5620 5615 5613 5611 5606 5603 5610 5620 5615 5617 5626 5630 5630 5639 5637 5640 5640 5649
5633 5635 5638 5640 5641 5643 5644 5643 5644 5644 5646 5647 5649 5649 5649 5649 5649 5649 5649 5648 5646 5644 5640 5637 5632 5627 5622 5616 5607 5601 5595 5589 5586 5582 5578 5600 5592 5590 5601 5618 5608 5624 5621 5625 5627 5631 5636
5621 5623 5626 5628 5630 5632 5633 5633 5633 5635 5637 5640 5640 5641 5641 5641 5640 5640 5639 5638 5637 5636 5630 5623 5618 5614 5609 5603 5597 5583 5574 5563 5557 5553 5555 5564 5566 5568 5585 5588 5597 5607 5607 5611 5613 5618 5624
5609 5612 5615 5617 5619 5621 5623 5623 5624 5626 5628 5631 5631 5632 5632 5632 5631 5630 5630 5629 5627 5625 5621 5613 5606 5600 5594 5587 5581 5565 5561 5554 5548 5540 5537 5536 5541 5550 5560 5567 5579 5586 5592 5597 5602 5606 5619
5597 5601 5603 5606 5608 5610 5612 5614 5615 5617 5619 5621 5621 5623 5623 5623 5622 5622 5621 5620 5618 5614 5610 5603 5596 5588 5579 5570 5569 5557 5553 5548 5545 5539 5530 5527 5530 5533 5543 5547 5565 5568 5578 5585 5593 5599 5608
5586 5589 5592 5595 5597 5599 5602 5604 5605 5607 5610 5612 5613 5614 5614 5614 5614 5613 5612 5609 5606 5603 5598 5593 5586 5580 5571 5561 5555 5551 5549 5545 5539 5537 5531 5525 5526 5527 5530 5540 5549 5558 5559 5584 5587 5593 5597
5573 5578 5581 5583 5586 5589 5592 5594 5597 5598 5600 5602 5604 5605 5606 5606 5605 5604 5602 5600 5596 5592 5587 5582 5576 5569 5562 5557 5551 5547 5545 5542 5535 5532 5528 5526 5523 5525 5529 5531 5537 5547 5562 5565 5572 5581 5588
5560 5565 5568 5571 5574 5578 5582 5584 5586 5589 5590 5592 5595 5596 5597 5597 5596 5595 5593 5590 5584 5581 5579 5574 5566 5560 5554 5549 5545 5543 5543 5540 5533 5529 5525 5523 5522 5526 5529 5530 5534 5541 5547 5553 5566 5574 5583
5547 5551 5556 5560 5563 5567 5571 5574 5577 5580 5581 5583 5586 5588 5588 5588 5588 5585 5584 5580 5575 5572 5570 5566 5558 5552 5548 5544 5542 5539 5539 5535 5530 5526 5524 5521 5521 5524 5526 5528 5530 5535 5542 5550 5556 5566 5572
5535 5540 5545 5548 5552 5556 5561 5565 5568 5570 5572 5575 5576 5579 5580 5579 5578 5577 5575 5571 5568 5564 5561 5556 5550 5547 5544 5541 5537 5535 5535 5534 5529 5525 5523 5519 5518 5521 5524 5525 5526 5529 5534 5544 5553 5562 5567
5525 5529 5534 5538 5542 5546 5551 5556 5559 5562 5564 5566 5568 5569 5571 5570 5570 5568 5565 5563 5561 5558 5554 5548 5544 5542 5540 5538 5535 5531 5531 5532 5527 5525 5523 5520 5519 5519 5519 5519 5524 5527 5530 5534 5541 5551 5559
5514 5519 5523 5528 5532 5537 5541 5545 5550 5552 5554 5557 5559 5560 5561 5563 5562 5559 5557 5556 5553 5550 5546 5542 5539 5535 5534 5534 5533 5529 5528 5528 5526 5522 5521 5519 5518 5517 5516 5517 5519 5523 5528 5531 5536 5543 5552
5504 5509 5514 5518 5522 5527 5532 5535 5540 5543 5546 5548 5550 5551 5552 5554 5553 5552 5551 5549 5546 5542 5538 5534 5533 5530 5527 5527 5527 5526 5524 5523 5525 5523 5520 5519 5518 5515 5516 5516 5519 5523 5527 5531 5535 5539 5546
5493 5498 5504 5508 5512 5517 5522 5526 5530 5534 5537 5538 5540 5542 5544 5545 5544 5544 5543 5542 5539 5535 5531 5528 5526 5525 5522 5522 5522 5522 5521 5520 5520 5522 5520 5519 5518 5516 5514 5514 5519 5524 5526 5531 5535 5538 5543
5482 5487 5493 5498 5503 5508 5512 5517 5521 5526 5528 5530 5533 5535 5536 5537 5537 5535 5536 5534 5530 5528 5525 5521 5520 5520 5519 5518 5518 5518 5518 5517 5516 5517 5519 5519 5518 5517 5515 5516 5520 5522 5524 5529 5534 5537 5539
5469 5475 5481 5487 5492 5496 5501 5506 5511 5516 5520 5523 5525 5527 5528 5529 5529 5528 5528 5525 5523 5520 5518 5515 5514 5514 5513 5514 5515 5515 5515 5515 5515 5515 5517 5518 5519 5518 5518 5518 5519 5521 5523 5527 5531 5534 5535
5458 5465 5471 5478 5483 5488 5494 5499 5504 5508 5513 5515 5517 5520 5522 5522 5522 5520 5519 5518 5515 5513 5511 5509 5508 5508 5508 5509 5511 5512 5512 5512 5513 5514 5514 5516 5517 5519 5519 5519 5520 5521 5522 5526 5529 5533 5532
5444 5453 5460 5467 5473 5479 5485 5490 5496 5501 5505 5508 5510 5513 5515 5515 5514 5513 5512 5510 5508 5506 5505 5503 5503 5504 5504 5505 5507 5509 5508 5509 5510 5511 5513 5514 5515 5517 5518 5519 5520 5520 5520 5523 5529 5533 5533
5430 5438 5447 5456 5462 5468 5475 5481 5487 5492 5497 5501 5502 5505 5507 5508 5507 5507 5505 5503 5502 5500 5499 5499 5499 5499 5500 5502 5503 5504 5505 5506 5507 5508 5509 5511 5513 5514 5515 5517 5519 5520 5522 5523 5525 5529 5533
5416 5424 5431 5442 5450 5457 5465 5472 5478 5483 5489 5493 5495 5498 5500 5500 5501 5501 5498 5497 5497 5495 5495 5494 5494 5494 5495 5497 5499 5500 5501 5504 5505 5506 5506 5510 5510 5509 5512 5513 5515 5518 5521 5521 5523 5527 5529